Regional Weather Roundup
Issued by NWS

Home | Current Version | Previous Version | Graphics & Text | Print | Product List | Glossary On
Versions: 1 2 3 4 5 6 7 8 9 10 11 12 13 14 15 16 17 18 19 20 21 22 23 24 25 26 27
000
ASUS45 KBOI 180410
RWRID

IDAHO REGIONAL WEATHER ROUNDUP
NATIONAL WEATHER SERVICE BOISE ID
900 PM MST TUE JAN 17 2017

NOTE: "FAIR" INDICATES FEW OR NO CLOUDS BELOW 12000 FEET
WITH NO SIGNIFICANT WEATHER AND/OR OBSTRUCTIONS TO VISIBILITY

IDZ012-014-180500-
SOUTHWEST IDAHO


CITY           SKY/WX    TMP DP  RH WIND       PRES   REMARKS
BOISE          CLEAR      6   2  83 W3        30.18F FOG
CALDWELL       CLEAR      1  -4  79 CALM      30.24F HAZE
MOUNTAIN HOME  CLEAR      8   8  99 VRB2      30.17F
$$

IDZ016-017-180500-
SOUTHCENTRAL IDAHO


CITY           SKY/WX    TMP DP  RH WIND       PRES   REMARKS
BURLEY         CLEAR     16  10  77 NE15      30.11F WCI   1
JEROME         CLEAR     13   7  77 NE24      30.14F WCI  -7
TWIN FALLS     CLEAR     14  10  84 NE6       30.14R WCI   5
$$

IDZ019>023-180500-
SOUTHEAST IDAHO


CITY           SKY/WX    TMP DP  RH WIND       PRES   REMARKS
IDAHO FALLS    CLOUDY     1  -3  83 N8        30.22S WCI -13
POCATELLO      CLOUDY     5   1  83 CALM      30.21S
REXBURG        CLOUDY     3   0  87 NE5       30.21S WCI  -6
$$

IDZ006-010-011-018-031-032-180500-
CENTRAL IDAHO MOUNTAINS


CITY           SKY/WX    TMP DP  RH WIND       PRES   REMARKS
MCCALL         PTCLDY    11   7  84 E7        30.01F WCI   0
HAILEY         CLEAR     12   9  85 NW7       30.16R WCI   2
STANLEY          N/A      8   5  87 SE3       30.07F
SALMON         CLOUDY    -8 -11  84 SE6       30.22F WCI -21
CHALLIS        PTCLDY    -9 -12  87 SW3       30.15S
$$

IDZ002-004-006-007-026-180500-
NORTHERN IDAHO


CITY           SKY/WX    TMP DP  RH WIND       PRES   REMARKS
LEWISTON       CLOUDY    34  19  54 S9        29.91F WCI  27
LOWELL           N/A     27  23  85 N8        29.99F WCI  19
COEUR D`ALENE  CLOUDY    29  26  89 NE10      29.83F WCI  20
MULLAN PASS    CLOUDY    30  16  56 SE8       29.79F WCI  22
$$




USA.gov is the U.S. government's official web portal to all federal, state and local government web resources and services.